[[{"header":{"parameterUnit":"m.s-1","parameterCategory":1,"la1":30.2991,"la2":30.254,"lo1":-89.0895,"lo2":-89.0444,"dy":0.0017,"dx":0.0017,"nx":28,"ny":28,"refTime":"2024-04-19T09:00:00:Z","depth":0,"parameterNumber":2,"parameterNumberName":"U-component_of_WINDS"},"data":[0,0,0,0,0,0,0,0,0,0,0,0,0,0,0,0,0,0,0,0,0,0,0,0,0,0,0,0,0,0,0,0,0,0,0,0,0,0,0,0,0,0,0,0,0,0,0,0,0,0,0,0,0,0,0,0,0,0,0.4055,0.4055,0,0.4068,0.4068,0.4069,0.4058,0.4058,0.4058,0.4057,0.4072,0.4073,0.4074,0,0,0,0,0,0,0,0,0,0,0,0,0,0.4022,0.4023,0.4055,0.4055,0.4056,0.4068,0.4068,0.4069,0.4058,0.4058,0.4057,0.4057,0.4072,0.4073,0.4074,0,0,0,0,0,0,0,0,0,0,0,0,0,0.4036,0.4023,0.4055,0.4052,0.4052,0.4068,0.4069,0.4069,0.4059,0.4058,0.4057,0.4057,0.4072,0.4073,0.4074,0.4095,0,0,0.4078,0.4078,0,0,0,0,0,0,0,0,0.4036,0.4038,0.4052,0.4052,0.4052,0.4061,0.4062,0.4078,0.4059,0.4056,0.4057,0.4056,0.4069,0.407,0.4074,0.4095,0.4096,0.4078,0.4078,0.4079,0.4079,0,0,0,0,0,0,0,0.4035,0.4037,0.406,0.4053,0.4052,0.405,0.4051,0.4065,0.4066,0.4056,0.4056,0.4057,0.4069,0.4073,0.4075,0.4096,0.4078,0.4079,0.408,0.408,0.4134,0.4135,0,0,0,0,0,0,0.4034,0.4036,0.406,0.4061,0.4042,0.4051,0.4053,0.4059,0.4066,0.4066,0.4058,0.4057,0.4071,0.4073,0.4075,0.41,0.4079,0.408,0.4081,0.4134,0.4135,0.4135,0,0,0,0,0,0,0.4033,0.4036,0.406,0.4048,0.4051,0.4053,0.406,0.4059,0.4064,0.4067,0.4067,0.4062,0.4071,0.4073,0.409,0.41,0.4081,0.4082,0.4133,0.4134,0.4135,0.4149,0,0,0,0,0,0,0.4032,0.4036,0.4044,0.4049,0.4052,0.4074,0.406,0.406,0.4066,0.4064,0.4071,0.4072,0.4071,0.4088,0.4091,0.4101,0.4083,0.4132,0.4133,0.4135,0.4148,0.415,0.4153,0,0,0,0,0,0.4031,0.4047,0.4044,0.4047,0.4061,0.4074,0.4076,0.4074,0.4067,0.4075,0.4076,0.4071,0.4098,0.409,0.4093,0.4104,0.4131,0.4133,0.4135,0.4146,0.415,0.4153,0,0,0,0,0,0,0.4045,0.4048,0.4044,0.4063,0.4068,0.4072,0.4082,0.4078,0.4086,0.4085,0.4083,0.4084,0.4101,0.4104,0.4094,0.4124,0.4114,0.4116,0.4122,0.4125,0.4127,0.4126,0.4084,0,0,0,0,0,0.4049,0.4059,0.4062,0.4078,0.4081,0.4081,0.4087,0.4085,0.409,0.4093,0.4096,0.4102,0.4112,0.4119,0.4128,0.4148,0.4149,0.4157,0.416,0.4162,0.4164,0.4174,0.4178,0.4141,0.4141,0.4141,0,0,0.406,0.4063,0.407,0.4081,0.4085,0.4095,0.4083,0.4095,0.4102,0.4095,0.411,0.4113,0.4119,0.4137,0.4145,0.414,0.4174,0.4164,0.4165,0.4166,0.4176,0.418,0.4183,0.4142,0.4142,0.4141,0,0,0.4085,0.4088,0.4102,0.4105,0.4111,0.4111,0.4114,0.4119,0.412,0.4135,0.413,0.4139,0.4156,0.4161,0.4166,0.4191,0.4187,0.4194,0.4208,0.4218,0.4221,0.4223,0.4232,0.4235,0.4196,0.4196,0.4196,0,0.4097,0.4112,0.4109,0.4121,0.4126,0.4118,0.4132,0.4136,0.4145,0.4149,0.4143,0.4163,0.4167,0.4186,0.4192,0.4196,0.42,0.4193,0.422,0.4223,0.4225,0.4234,0.4237,0.4197,0.4197,0.4197,0.4197,0,0.4127,0.4138,0.4148,0.4156,0.4162,0.4174,0.4173,0.418,0.4177,0.4178,0.4193,0.4198,0.4207,0.4212,0.421,0.423,0.4227,0.4221,0.421,0.423,0.4238,0.4241,0.4198,0.4198,0.4198,0.4198,0,0,0.4161,0.4167,0.417,0.4173,0.4179,0.4187,0.4199,0.4208,0.4214,0.422,0.423,0.4244,0.4238,0.4243,0.4242,0.4251,0.427,0.4243,0.4244,0.4248,0.4293,0.4297,0.4301,0.4267,0.4268,0.4268,0.4292,0,0.4186,0.4207,0.4204,0.4224,0.4233,0.4226,0.4236,0.4241,0.4242,0.425,0.4251,0.4261,0.4253,0.4256,0.4264,0.4266,0.4279,0.4264,0.4277,0.4277,0.4275,0.4305,0.431,0.4332,0.4295,0.4295,0.4296,0,0.4218,0.4224,0.4245,0.4248,0.4252,0.4261,0.4269,0.4277,0.4282,0.4282,0.4287,0.4283,0.4296,0.4285,0.4302,0.4292,0.4296,0.4298,0.4299,0.43,0.4288,0.4307,0.4339,0.4342,0.4301,0.43,0.43,0,0.424,0.4254,0.4268,0.4271,0.4275,0.4282,0.4284,0.4288,0.4293,0.43,0.4303,0.4312,0.4316,0.4323,0.4322,0.4314,0.4339,0.4328,0.4339,0.4339,0.4345,0.4345,0.4378,0.4348,0.4348,0.4348,0.4348,0,0.4268,0.4281,0.4278,0.4286,0.43,0.4297,0.4311,0.4313,0.4316,0.4325,0.432,0.4328,0.4326,0.4334,0.4334,0.4348,0.435,0.435,0.435,0.4351,0.435,0.4354,0.4352,0.4349,0.4349,0.4349,0.4348,0,0.4295,0.4294,0.4308,0.4311,0.4312,0.4322,0.4324,0.4333,0.4332,0.4344,0.4346,0.4346,0.4356,0.4355,0.4366,0.4366,0.4383,0.4381,0.4381,0.438,0.4392,0.439,0.4429,0.4433,0.44,0.4401,0.4401,0,0.4313,0.4323,0.4326,0.4331,0.4333,0.4342,0.4347,0.4344,0.4349,0.4355,0.4363,0.4372,0.4379,0.4394,0.4396,0.4404,0.4402,0.4415,0.4403,0.4403,0.4402,0.4401,0.4402,0.4417,0.4417,0.4418,0.4418,0,0.4345,0.4343,0.435,0.4357,0.4363,0.4368,0.4373,0.4378,0.4375,0.4382,0.4391,0.4396,0.4407,0.4416,0.4424,0.4426,0.4422,0.4421,0.4424,0.4425,0.4425,0.4425,0.4387,0.4421,0.442,0.442,0.442,0.442,0.4368,0.4376,0.4379,0.4387,0.439,0.4394,0.4402,0.4402,0.441,0.4418,0.4416,0.4426,0.443,0.444,0.4443,0.4451,0.4447,0.4451,0.4453,0.4454,0.4455,0.4424,0.4453,0.4453,0.4453,0.4453,0.4453,0,0.4399,0.44,0.4408,0.4414,0.442,0.4415,0.442,0.4425,0.4434,0.4438,0.4445,0.4455,0.4464,0.4465,0.4473,0.4479,0.4478,0.4482,0.4481,0.4482,0.4459,0.4455,0.4483,0.4483,0.4483,0.4483,0.4483,0.4483,0.4416,0.4429,0.4428,0.4442,0.4443,0.4453,0.4456,0.446,0.4463,0.4475,0.4481,0.4482,0.4485,0.4493,0.45,0.4501,0.4504,0.4509,0.4508,0.4486,0.4483,0.4481,0.4477,0.4509,0.4509,0.4531,0.4531,0.4531]},{"header":{"parameterUnit":"m.s-1","parameterCategory":1,"la1":30.2991,"la2":30.254,"lo1":-89.0895,"lo2":-89.0444,"dy":0.0017,"dx":0.0017,"nx":28,"ny":28,"refTime":"2024-04-19T09:00:00:Z","depth":0,"parameterNumber":3,"parameterNumberName":"V-component_of_WINDS"},"data":[0,0,0,0,0,0,0,0,0,0,0,0,0,0,0,0,0,0,0,0,0,0,0,0,0,0,0,0,0,0,0,0,0,0,0,0,0,0,0,0,0,0,0,0,0,0,0,0,0,0,0,0,0,0,0,0,0,0,2.1234,2.1235,0,2.1301,2.1302,2.1303,2.1294,2.1293,2.1292,2.1291,2.1356,2.1358,2.1361,0,0,0,0,0,0,0,0,0,0,0,0,0,2.1095,2.1098,2.1234,2.1235,2.1236,2.1301,2.1302,2.1303,2.1294,2.1293,2.1291,2.129,2.1355,2.1358,2.1361,0,0,0,0,0,0,0,0,0,0,0,0,0,2.1158,2.1099,2.1234,2.1239,2.1241,2.1301,2.1302,2.1303,2.1294,2.1293,2.1291,2.129,2.1354,2.1358,2.1362,2.142,0,0,2.1374,2.1376,0,0,0,0,0,0,0,0,2.1155,2.1163,2.1238,2.1239,2.1241,2.1288,2.1277,2.1342,2.1295,2.1274,2.1291,2.1289,2.1334,2.134,2.1356,2.1423,2.1425,2.1375,2.1377,2.1379,2.138,0,0,0,0,0,0,0,2.115,2.116,2.126,2.1239,2.1241,2.1237,2.1244,2.1289,2.1312,2.1275,2.1275,2.1283,2.1334,2.1352,2.1357,2.1426,2.1374,2.1378,2.1381,2.1382,2.1545,2.1546,0,0,0,0,0,0,2.1145,2.1157,2.1258,2.1263,2.1193,2.1241,2.1249,2.1274,2.1312,2.1316,2.1285,2.1283,2.1345,2.1352,2.1359,2.143,2.1379,2.1383,2.1385,2.1543,2.1545,2.1547,0,0,0,0,0,0,2.1142,2.1154,2.1256,2.121,2.1222,2.1245,2.1273,2.1276,2.1294,2.1319,2.1322,2.1298,2.1344,2.1354,2.1405,2.1432,2.1385,2.1388,2.1541,2.1543,2.1546,2.1572,0,0,0,0,0,0,2.1138,2.1153,2.1176,2.121,2.1225,2.1301,2.1275,2.1279,2.1301,2.1299,2.1332,2.1336,2.1344,2.1399,2.1409,2.1437,2.1391,2.1538,2.1542,2.1545,2.1569,2.1575,2.1581,0,0,0,0,0,2.1133,2.118,2.1178,2.119,2.1254,2.1303,2.1311,2.132,2.1303,2.1326,2.1342,2.1335,2.1428,2.1404,2.1416,2.1445,2.1537,2.1541,2.1545,2.1566,2.1574,2.1581,0,0,0,0,0,0,2.1147,2.1185,2.1182,2.1242,2.127,2.1302,2.1331,2.1328,2.136,2.1357,2.1365,2.1373,2.1425,2.144,2.1414,2.1503,2.148,2.1486,2.1492,2.15,2.1506,2.1501,2.1395,0,0,0,0,0,2.1158,2.1195,2.1225,2.1275,2.1289,2.1308,2.1329,2.1334,2.1362,2.1373,2.1393,2.142,2.1455,2.1478,2.1512,2.1571,2.1578,2.1597,2.1603,2.1608,2.1613,2.1646,2.1655,2.1561,2.1561,2.156,0,0,2.1179,2.1204,2.1227,2.1278,2.13,2.1338,2.1317,2.1358,2.1386,2.1379,2.143,2.1445,2.1475,2.1531,2.1557,2.1545,2.1641,2.1613,2.1617,2.162,2.1651,2.166,2.1668,2.1563,2.1563,2.1562,0,0,2.1237,2.126,2.1304,2.1327,2.1361,2.1373,2.1383,2.1416,2.1427,2.1478,2.1473,2.1506,2.1566,2.1588,2.1607,2.1674,2.1669,2.1685,2.1716,2.1748,2.1756,2.1762,2.1786,2.1795,2.169,2.169,2.169,0,2.1259,2.1317,2.1326,2.1368,2.1391,2.1388,2.1432,2.1453,2.1496,2.1511,2.1498,2.1574,2.1594,2.1655,2.1672,2.1687,2.1699,2.1681,2.1754,2.1761,2.1767,2.179,2.1799,2.1692,2.1692,2.1692,2.1692,0,2.1342,2.1382,2.1414,2.1457,2.1483,2.1525,2.1541,2.1566,2.1568,2.1581,2.1632,2.1657,2.1696,2.171,2.1712,2.1772,2.1764,2.1752,2.1728,2.1778,2.1799,2.1808,2.1695,2.1694,2.1694,2.1693,0,0,2.1411,2.146,2.1471,2.1491,2.1528,2.1559,2.1601,2.164,2.1662,2.1691,2.1726,2.1778,2.1768,2.1789,2.1793,2.1821,2.1873,2.1806,2.1807,2.1818,2.194,2.1949,2.1959,2.1869,2.1871,2.1873,2.1938,0,2.1474,2.155,2.156,2.1627,2.1664,2.1662,2.1698,2.1725,2.1738,2.1771,2.1785,2.1821,2.1805,2.1818,2.1845,2.1861,2.1898,2.1856,2.1902,2.1903,2.1895,2.1971,2.198,2.204,2.1946,2.1948,2.1949,0,2.1557,2.159,2.1662,2.1695,2.171,2.1744,2.178,2.1812,2.1841,2.1849,2.1873,2.1874,2.1917,2.1891,2.195,2.1921,2.194,2.1951,2.1953,2.1958,2.193,2.1978,2.206,2.2069,2.1962,2.1961,2.196,0,2.1601,2.1663,2.1714,2.1731,2.1771,2.1794,2.1811,2.1839,2.1862,2.1894,2.1909,2.1944,2.1964,2.1991,2.2001,2.1981,2.2059,2.2034,2.2066,2.2066,2.2083,2.2082,2.217,2.2095,2.2095,2.2094,2.2094,0,2.167,2.1714,2.1735,2.1766,2.1815,2.1826,2.1873,2.1889,2.1914,2.1948,2.1947,2.1978,2.199,2.2023,2.203,2.2078,2.2086,2.2093,2.2095,2.2094,2.2093,2.2107,2.2103,2.2097,2.2096,2.2096,2.2095,0,2.1727,2.1744,2.1799,2.1832,2.1841,2.1876,2.1904,2.1934,2.1947,2.1989,2.2,2.202,2.2058,2.2071,2.2117,2.2123,2.2178,2.2176,2.2169,2.2169,2.2201,2.2198,2.2301,2.2315,2.223,2.2231,2.2232,0,2.1771,2.1805,2.1842,2.1865,2.1884,2.1921,2.1945,2.1956,2.198,2.2017,2.2042,2.2081,2.2113,2.2175,2.2192,2.2228,2.2227,2.226,2.2232,2.223,2.2228,2.2226,2.2229,2.2266,2.2267,2.2267,2.2268,0,2.1846,2.1852,2.1888,2.1926,2.1955,2.1985,2.2014,2.2033,2.2048,2.2075,2.2116,2.2141,2.2189,2.2227,2.2263,2.228,2.2276,2.2277,2.2286,2.2286,2.228,2.2284,2.2184,2.2274,2.2274,2.2273,2.2273,2.2273,2.1898,2.1928,2.196,2.1999,2.2022,2.205,2.208,2.2097,2.2131,2.2172,2.2176,2.222,2.2248,2.2297,2.2315,2.2348,2.2338,2.2352,2.2355,2.2359,2.2362,2.2275,2.2355,2.2354,2.2354,2.2354,2.2354,0,2.1974,2.1994,2.203,2.2072,2.2102,2.2098,2.213,2.2155,2.2194,2.2221,2.2253,2.2299,2.2337,2.2358,2.2395,2.2417,2.2417,2.2427,2.2425,2.2429,2.2368,2.2356,2.2427,2.2427,2.2427,2.2427,2.2427,2.2427,2.2017,2.2068,2.2078,2.2141,2.216,2.2204,2.2223,2.2248,2.227,2.2322,2.2354,2.2367,2.2392,2.2431,2.2464,2.247,2.2483,2.2495,2.2499,2.2441,2.2433,2.2426,2.2416,2.2497,2.2497,2.2557,2.2558,2.2558]}]]